FW3157 Weather Reports


time (UTC)temp
C
wind
direction
speed
KPH
gust
KPH
rain 1hr
cm
rain 24hr
cm
rain mn
cm
humidity
%
barometer
mb
20260506004221 16 295 4.8 11.3 0.00 0.00 0.00 71 1015.3
20260506003459 16 290 4.8 11.3 0.00 0.00 0.00 72 1015.2
20260506002959 16 266 3.2 9.7 0.00 0.00 0.00 73 1015.2
20260506002457 16 268 3.2 9.7 0.00 0.00 0.00 73 1015.2
20260506001957 15 271 4.8 8.0 0.00 0.00 0.00 75 1015.2
20260506001453 15 273 4.8 9.7 0.00 0.00 0.00 76 1015.2
20260506000953 15 272 4.8 9.7 0.00 0.00 0.00 77 1015.2
20260506000452 16 283 4.8 8.0 0.00 0.00 0.00 79 1015.2
20260505235953 16 281 4.8 8.0 0.00 0.00 0.00 78 1015.2
20260505235452 16 258 4.8 6.4 0.00 0.00 0.00 78 1015.1
20260505234952 16 262 3.2 6.4 0.00 0.00 0.00 78 1015.0
20260505234937 16 276 4.8 9.7 0.00 0.00 0.00 78 1015.0
20260505233953 16 245 4.8 9.7 0.00 0.00 0.00 77 1015.0
20260505233453 17 257 4.8 8.0 0.00 0.00 0.00 74 1015.0
20260505232949 17 251 3.2 8.0 0.00 0.00 0.00 71 1015.0
20260505232708 17 272 1.6 3.2 0.00 0.00 0.00 61 1015.0
20260505232205 17 272 0.0 3.2 0.00 0.00 0.00 59 1015.0
20260505231449 17 272 0.0 0.0 0.00 0.00 0.00 59 1014.9
20260505231205 17 272 0.0 0.0 0.00 0.00 0.00 59 1014.9
20260505230448 17 272 0.0 0.0 0.00 0.00 0.00 60 1015.0
20260505225948 17 272 0.0 0.0 0.00 0.00 0.00 60 1014.9
20260505225448 17 272 0.0 0.0 0.00 0.00 0.00 61 1014.9
20260505224949 17 272 0.0 0.0 0.00 0.00 0.00 61 1015.0
20260505224444 17 272 0.0 0.0 0.00 0.00 0.00 64 1015.0
20260505223945 17 272 0.0 0.0 0.00 0.00 0.00 67 1015.1
20260505223922 17 272 0.0 0.0 0.00 0.00 0.00 69 1015.1
20260505222940 17 272 0.0 0.0 0.00 0.00 0.00 71 1015.1
20260505222438 17 272 0.0 0.0 0.00 0.00 0.00 71 1015.1
20260505221936 17 272 0.0 0.0 0.00 0.00 0.00 71 1015.0
20260505221435 17 272 0.0 0.0 0.00 0.00 0.00 71 1015.0
20260505220932 17 272 0.0 0.0 0.00 0.00 0.00 71 1015.0
20260505220432 17 272 0.0 0.0 0.00 0.00 0.00 72 1015.0
20260505215933 17 272 0.0 1.6 0.00 0.00 0.00 72 1014.9
20260505215433 17 272 1.6 4.8 0.00 0.00 0.00 72 1014.9
20260505214932 17 272 1.6 4.8 0.00 0.00 0.00 72 1014.9
20260505214430 17 272 1.6 4.8 0.00 0.00 0.00 72 1014.9
20260505213928 17 272 3.2 9.7 0.00 0.00 0.00 71 1014.9
20260505213428 18 272 3.2 9.7 0.00 0.00 0.00 71 1014.8
20260505212928 18 294 4.8 11.3 0.00 0.00 0.00 69 1014.8
20260505212426 18 295 6.4 12.9 0.00 0.00 0.00 68 1014.8
20260505211925 18 300 6.4 12.9 0.00 0.00 0.00 66 1014.8
20260505211652 18 278 6.4 12.9 0.00 0.00 0.00 64 1014.8
20260505210917 18 299 4.8 12.9 0.00 0.00 0.00 62 1014.7
20260505210420 18 313 3.2 9.7 0.00 0.00 0.00 61 1014.7
20260505205915 18 37 4.8 9.7 0.00 0.00 0.00 59 1014.6
20260505205633 19 70 3.2 9.7 0.00 0.00 0.00 58 1014.6
20260505204915 19 75 3.2 8.0 0.00 0.00 0.00 55 1014.6
20260505204416 20 99 3.2 8.0 0.00 0.00 0.00 50 1014.5
20260505203914 20 89 3.2 11.3 0.00 0.00 0.00 43 1014.5
20260505203906 20 89 6.4 14.5 0.00 0.00 0.00 40 1014.4
20260505203139 20 87 6.4 14.5 0.00 0.00 0.00 40 1014.4
20260505202416 20 113 6.4 12.9 0.00 0.00 0.00 41 1014.3
20260505201915 20 107 6.4 11.3 0.00 0.00 0.00 42 1014.3
20260505201416 20 93 4.8 9.7 0.00 0.00 0.00 42 1014.3
20260505200913 20 76 3.2 9.7 0.00 0.00 0.00 43 1014.2
20260505200412 20 107 4.8 12.9 0.00 0.00 0.00 43 1014.2
20260505195912 20 101 6.4 12.9 0.00 0.00 0.00 43 1014.2
20260505195411 20 103 6.4 11.3 0.00 0.00 0.00 43 1014.1
20260505194910 20 117 6.4 14.5 0.00 0.00 0.00 43 1014.0
20260505194411 20 105 8.0 16.1 0.00 0.00 0.00 43 1013.8
20260505193909 20 108 8.0 17.7 0.00 0.00 0.00 42 1013.8
20260505193408 20 150 8.0 19.3 0.00 0.00 0.00 42 1013.8
20260505192909 20 108 9.7 22.5 0.00 0.00 0.00 43 1013.7
20260505192623 20 131 11.3 22.5 0.00 0.00 0.00 43 1013.7
20260505191907 20 179 11.3 22.5 0.00 0.00 0.00 44 1013.7
20260505191627 20 158 11.3 22.5 0.00 0.00 0.00 44 1013.7
20260505190906 20 71 11.3 22.5 0.00 0.00 0.00 44 1013.6
20260505190631 20 143 9.7 22.5 0.00 0.00 0.00 45 1013.6
20260505185904 20 100 9.7 20.9 0.00 0.00 0.00 45 1013.6
20260505185402 20 81 9.7 24.1 0.00 0.00 0.00 45 1013.5
20260505184900 20 109 11.3 20.9 0.00 0.00 0.00 45 1013.5
20260505184621 20 111 11.3 20.9 0.00 0.00 0.00 46 1013.4
20260505183900 20 101 11.3 20.9 0.00 0.00 0.00 46 1013.4
20260505183628 21 101 9.7 20.9 0.00 0.00 0.00 45 1013.4
20260505182858 21 156 6.4 20.9 0.00 0.00 0.00 44 1013.3
20260505182358 21 116 6.4 14.5 0.00 0.00 0.00 42 1013.4
20260505181857 21 117 8.0 16.1 0.00 0.00 0.00 41 1013.2
20260505181356 21 91 8.0 16.1 0.00 0.00 0.00 40 1013.2
20260505180907 21 108 6.4 16.1 0.00 0.00 0.00 40 1013.1
20260505180356 22 96 6.4 16.1 0.00 0.00 0.00 39 1013.1
20260505175857 22 134 6.4 16.1 0.00 0.00 0.00 38 1013.0
20260505175625 22 123 8.0 16.1 0.00 0.00 0.00 39 1013.1
20260505174857 22 184 9.7 16.1 0.00 0.00 0.00 39 1013.0
20260505174356 22 93 9.7 16.1 0.00 0.00 0.00 39 1013.0
20260505173850 22 96 9.7 19.3 0.00 0.00 0.00 39 1013.0
20260505173344 22 108 8.0 19.3 0.00 0.00 0.00 39 1013.0
20260505172837 22 100 6.4 14.5 0.00 0.00 0.00 39 1012.9
20260505172331 23 108 8.0 14.5 0.00 0.00 0.00 37 1012.9
20260505171826 23 111 8.0 14.5 0.00 0.00 0.00 36 1012.9
20260505171542 23 120 6.4 14.5 0.00 0.00 0.00 36 1012.9
20260505170814 23 144 4.8 14.5 0.00 0.00 0.00 37 1012.9
20260505170308 23 79 4.8 17.7 0.00 0.00 0.00 36 1012.9
20260505165802 23 112 4.8 17.7 0.00 0.00 0.00 36 1012.9
20260505165256 23 144 6.4 19.3 0.00 0.00 0.00 37 1012.9
20260505164750 24 203 6.4 19.3 0.00 0.00 0.00 38 1013.0
20260505164244 24 126 6.4 17.7 0.00 0.00 0.00 37 1013.0
20260505164007 25 78 6.4 14.5 0.00 0.00 0.00 36 1013.0
20260505163231 25 143 4.8 14.5 0.00 0.00 0.00 35 1013.0
20260505162726 25 140 4.8 14.5 0.00 0.00 0.00 35 1013.0
20260505162219 25 198 6.4 14.5 0.00 0.00 0.00 34 1012.9
20260505161714 25 159 6.4 16.1 0.00 0.00 0.00 35 1012.9
20260505161207 25 120 8.0 17.7 0.00 0.00 0.00 36 1013.0
20260505160703 25 153 8.0 19.3 0.00 0.00 0.00 36 1013.0
20260505160156 25 235 8.0 19.3 0.00 0.00 0.00 35 1013.0
20260505153120 26 217 6.4 16.1 0.00 0.00 0.00 33 1013.1
20260505152613 26 210 6.4 16.1 0.00 0.00 0.00 31 1013.1
20260505152107 26 161 6.4 14.5 0.00 0.00 0.00 31 1013.1
20260505151601 27 209 6.4 16.1 0.00 0.00 0.00 30 1013.1
20260505151545 27 193 6.4 16.1 0.00 0.00 0.00 30 1013.1
20260505150550 27 285 6.4 16.1 0.00 0.00 0.00 30 1013.1
20260505140512 26 152 8.0 17.7 0.00 0.00 0.00 30 1013.4
20260505130214 26 165 8.0 17.7 0.00 0.00 0.00 32 1013.8
20260505124951 26 219 6.4 12.9 0.00 0.00 0.00 31 1013.9
20260505124936 26 190 6.4 11.3 0.00 0.00 0.00 31 1014.0
20260505123952 26 217 6.4 14.5 0.00 0.00 0.00 31 1014.0
20260505123450 26 208 6.4 14.5 0.00 0.00 0.00 32 1014.1
20260505122950 27 222 4.8 14.5 0.00 0.00 0.00 35 1014.1
20260505122450 27 168 4.8 12.9 0.00 0.00 0.00 35 1014.1
20260505121950 26 221 6.4 16.1 0.00 0.00 0.00 34 1014.2
20260505121449 26 216 4.8 16.1 0.00 0.00 0.00 33 1014.2
20260505120950 26 224 4.8 17.7 0.00 0.00 0.00 36 1014.3
20260505120449 26 148 8.0 17.7 0.00 0.00 0.00 38 1014.4
20260505115950 26 214 6.4 17.7 0.00 0.00 0.00 36 1014.5
20260505115713 26 250 4.8 16.1 0.00 0.00 0.00 34 1014.5
20260505114950 26 238 4.8 11.3 0.00 0.00 0.00 34 1014.6
20260505114714 26 224 4.8 11.3 0.00 0.00 0.00 33 1014.6
20260505113948 26 58 6.4 12.9 0.00 0.00 0.00 33 1014.7
20260505113449 26 215 6.4 12.9 0.00 0.00 0.00 32 1014.7
20260505112947 26 218 4.8 11.3 0.00 0.00 0.00 32 1014.8
20260505112448 26 240 4.8 11.3 0.00 0.00 0.00 32 1014.8
20260505112210 26 214 4.8 11.3 0.00 0.00 0.00 32 1014.9
20260505111448 26 252 6.4 12.9 0.00 0.00 0.00 30 1014.9
20260505111209 25 283 8.0 12.9 0.00 0.00 0.00 28 1014.9
20260505110936 25 265 6.4 11.3 0.00 0.00 0.00 27 1014.9
20260505102211 24 197 4.8 8.0 0.00 0.00 0.00 35 1015.3
20260505101441 24 210 4.8 9.7 0.00 0.00 0.00 35 1015.3
20260505100935 24 221 3.2 9.7 0.00 0.00 0.00 35 1015.4
20260505100429 24 212 3.2 8.0 0.00 0.00 0.00 37 1015.5
20260505095929 24 238 3.2 9.7 0.00 0.00 0.00 37 1015.5
20260505095428 24 248 4.8 11.3 0.00 0.00 0.00 37 1015.5
20260505094926 23 246 4.8 11.3 0.00 0.00 0.00 38 1015.6
20260505094425 23 241 6.4 11.3 0.00 0.00 0.00 38 1015.6
20260505094151 23 316 4.8 11.3 0.00 0.00 0.00 35 1015.6
20260505093426 23 250 3.2 8.0 0.00 0.00 0.00 36 1015.7
20260505092923 23 184 4.8 9.7 0.00 0.00 0.00 37 1015.7
20260505092648 23 249 4.8 11.3 0.00 0.00 0.00 38 1015.8
20260505091924 23 206 4.8 11.3 0.00 0.00 0.00 38 1015.9
20260505091421 22 246 6.4 11.3 0.00 0.00 0.00 38 1015.9
20260505090919 22 285 6.4 11.3 0.00 0.00 0.00 37 1015.9
20260505090420 22 295 4.8 9.7 0.00 0.00 0.00 38 1016.0
20260505085919 22 293 3.2 9.7 0.00 0.00 0.00 38 1016.1
20260505085609 21 252 6.4 11.3 0.00 0.00 0.00 42 1016.1
20260505085452 22 251 4.8 9.7 0.00 0.00 0.00 40 1016.1
20260505085237 21 246 6.4 9.7 0.00 0.00 0.00 40 1016.1
20260505083919 21 259 4.8 11.3 0.00 0.00 0.00 43 1016.2
20260505083417 21 261 3.2 8.0 0.00 0.00 0.00 44 1016.2
20260505083137 21 262 4.8 8.0 0.00 0.00 0.00 45 1016.3
20260505082405 21 287 4.8 9.7 0.00 0.00 0.00 45 1016.3
20260505081859 20 263 4.8 9.7 0.00 0.00 0.00 45 1016.4
20260505081619 20 267 3.2 9.7 0.00 0.00 0.00 45 1016.4
20260505081336 20 281 3.2 8.0 0.00 0.00 0.00 45 1016.4
20260505080340 20 277 4.8 9.7 0.00 0.00 0.00 46 1016.4
20260505075834 20 292 4.8 11.3 0.00 0.00 0.00 46 1016.5
20260505075328 20 260 4.8 11.3 0.00 0.00 0.00 46 1016.5
20260505074823 20 297 4.8 9.7 0.00 0.00 0.00 46 1016.5
20260505074543 20 280 3.2 9.7 0.00 0.00 0.00 46 1016.5
20260505073811 19 278 3.2 9.7 0.00 0.00 0.00 46 1016.6
20260505073305 19 266 3.2 6.4 0.00 0.00 0.00 48 1016.6
20260505072758 18 255 3.2 6.4 0.00 0.00 0.00 50 1016.6
20260505072254 18 250 3.2 6.4 0.00 0.00 0.00 51 1016.6
20260505072009 18 266 3.2 6.4 0.00 0.00 0.00 53 1016.7
20260505071241 18 270 3.2 8.0 0.00 0.00 0.00 52 1016.7
20260505070959 18 252 3.2 8.0 0.00 0.00 0.00 53 1016.7
20260505070228 18 264 3.2 6.4 0.00 0.00 0.00 52 1016.7
20260505065723 18 275 3.2 6.4 0.00 0.00 0.00 52 1016.7
20260505065217 18 298 1.6 6.4 0.00 0.00 0.00 53 1016.9
20260505064936 17 300 1.6 4.8 0.00 0.00 0.00 55 1016.7
20260505064204 17 300 3.2 4.8 0.00 0.00 0.00 56 1016.9
20260505063659 17 285 3.2 6.4 0.00 0.00 0.00 57 1016.7
20260505063153 17 293 3.2 8.0 0.00 0.00 0.00 58 1016.9
20260505062647 16 305 3.2 8.0 0.00 0.00 0.00 55 1016.9
20260505062141 16 282 3.2 6.4 0.00 0.00 0.00 59 1016.7
20260505061904 16 267 1.6 4.8 0.00 0.00 0.00 63 1016.9
20260505061129 16 267 1.6 4.8 0.00 0.00 0.00 63 1016.7
20260505060623 16 267 1.6 4.8 0.00 0.00 0.00 64 1016.7
20260505060346 16 267 1.6 4.8 0.00 0.00 0.00 65 1016.7
20260505055611 16 266 1.6 3.2 0.00 0.00 0.00 64 1016.7
20260505055105 16 266 0.0 3.2 0.00 0.00 0.00 64 1016.7
20260505054558 16 266 0.0 1.6 0.00 0.00 0.00 67 1016.6
20260505054052 16 266 0.0 1.6 0.00 0.00 0.00 66 1016.6
20260505053547 16 266 0.0 4.8 0.00 0.00 0.00 67 1016.6
20260505053533 15 266 1.6 4.8 0.00 0.00 0.00 66 1016.6
20260505052539 15 266 0.0 3.2 0.00 0.00 0.00 65 1016.6
20260505052304 15 266 1.6 4.8 0.00 0.00 0.00 65 1016.6
20260505051537 15 266 1.6 4.8 0.00 0.00 0.00 64 1016.5
20260505051037 16 266 0.0 3.2 0.00 0.00 0.00 60 1016.6
20260505050536 16 266 0.0 0.0 0.00 0.00 0.00 61 1016.6
20260505041533 13 266 0.0 0.0 0.00 0.00 0.00 65 1016.5
20260505041031 12 266 0.0 0.0 0.00 0.00 0.00 64 1016.5
20260505040531 12 266 0.0 0.0 0.00 0.00 0.00 64 1016.5
20260505040031 12 266 0.0 0.0 0.00 0.00 0.00 64 1016.5
20260505040015 12 266 0.0 0.0 0.00 0.00 0.00 64 1016.5
20260505035019 12 266 0.0 0.0 0.00 0.00 0.00 65 1016.5
20260505034512 12 266 0.0 0.0 0.00 0.00 0.00 66 1016.5
20260505034228 12 266 0.0 0.0 0.00 0.00 0.00 66 1016.4
20260505033501 12 266 0.0 0.0 0.00 0.00 0.00 66 1016.4
20260505032955 12 266 0.0 0.0 0.00 0.00 0.00 66 1016.4
20260505032450 12 266 0.0 0.0 0.00 0.00 0.00 66 1016.4
20260505032423 13 266 0.0 1.6 0.00 0.00 0.00 67 1016.3
20260505031437 12 266 1.6 3.2 0.00 0.00 0.00 67 1016.3
20260505030940 12 266 1.6 3.2 0.00 0.00 0.00 67 1016.3
20260505030658 12 266 0.0 3.2 0.00 0.00 0.00 67 1016.3
20260505030156 12 266 0.0 0.0 0.00 0.00 0.00 67 1016.4
20260505025434 13 266 0.0 0.0 0.00 0.00 0.00 68 1016.4
20260505024933 13 266 0.0 0.0 0.00 0.00 0.00 68 1016.4
20260505024654 13 266 0.0 1.6 0.00 0.00 0.00 69 1016.4
20260505023930 13 267 0.0 3.2 0.00 0.00 0.00 69 1016.5
20260505023430 13 266 0.0 3.2 0.00 0.00 0.00 70 1016.5
20260505022931 13 266 0.0 3.2 0.00 0.00 0.00 69 1016.6
20260505022429 13 266 1.6 3.2 0.00 0.00 0.00 69 1016.6
20260505021926 13 266 0.0 3.2 0.00 0.00 0.00 69 1016.6
20260505021426 13 267 1.6 4.8 0.00 0.00 0.00 68 1016.6
20260505020925 13 266 1.6 4.8 0.00 0.00 0.00 66 1016.7
20260505020642 13 101 0.0 0.0 0.00 0.00 0.00 63 1016.6
20260505015923 13 101 0.0 0.0 0.00 0.00 0.00 65 1016.5
20260505015423 13 101 0.0 0.0 0.00 0.00 0.00 64 1016.6
20260505014919 13 101 0.0 1.6 0.00 0.00 0.00 63 1016.5
20260505014418 13 101 0.0 1.6 0.00 0.00 0.00 64 1016.5
20260505013919 13 101 0.0 0.0 0.00 0.00 0.00 63 1016.5
20260505013418 13 101 0.0 0.0 0.00 0.00 0.00 63 1016.6
20260505012918 13 101 0.0 1.6 0.00 0.00 0.00 63 1016.6
20260505012419 13 101 0.0 1.6 0.00 0.00 0.00 63 1016.6
20260505011918 13 101 0.0 1.6 0.00 0.00 0.00 63 1016.7
20260505011419 13 101 0.0 1.6 0.00 0.00 0.00 63 1016.9
20260505010919 13 101 0.0 3.2 0.00 0.00 0.00 63 1016.7
20260505010415 13 101 0.0 3.2 0.00 0.00 0.00 63 1016.7
20260505005914 13 101 0.0 3.2 0.00 0.00 0.00 62 1016.7
20260505005415 13 101 0.0 0.0 0.00 0.00 0.00 62 1016.9
20260505004915 13 101 0.0 0.0 0.00 0.00 0.00 62 1016.9